Regional Weather Roundup
Issued by NWS Wakefield, VA

Home | Current Version | Previous Version | Text Only | Print | Product List | Glossary Off
Versions: 1 2 3 4 5 6 7 8 9 10 11 12 13 14 15 16 17 18 19 20 21 22 23 24 25 26 27

000
ASUS41 KAKQ 270416
RWRAKQ

REGIONAL WEATHER ROUNDUP
NATIONAL WEATHER SERVICE WAKEFIELD VA
1200 AM EDT THU JUL 27 2017

Note: "fair" indicates few or no clouds below 12,000 feet with no
significant weather and/or obstructions to visibility. * = Denotes
station may not report precipitation (e.g., rain,snow,etc.),
thunder or fog.

VAZ042-051-052>054-056-270500-
NORTHERN VIRGINIA

CITY           SKY/WX    TMP DP  RH WIND       PRES   REMARKS
WASH NATIONAL  MOCLDY    75  71  87 SE7       30.11S
DULLES         CLOUDY    74  65  73 SE5       30.10S
FORT BELVOIR   MOCLDY    73  67  81 CALM      30.10S
QUANTICO       MOCLDY    77  71  82 S13       30.11R
FREDERICKSBRG* MOCLDY    74  67  80 SE6       30.10R
STAFFORD*      PTCLDY    71  68  89 SE6       30.14S
WARRENTON      PTCLDY    73  65  75 CALM      30.10S
CULPEPER*      MOCLDY    73  68  83 CALM      30.11R
MANASSAS*      CLOUDY    72  68  87 CALM      30.11R
LEESBURG*      MOCLDY    77  70  78 SE5       30.11S
WINCHESTER     CLOUDY    70  63  78 CALM      30.10S
FRONT ROYAL*   MOCLDY    72  64  78 CALM      30.09S
LURAY*         MOCLDY    72  68  88 CALM      30.11S
$$

VAZ048-049-060>072-079>083-270500-
CENTRAL AND SOUTH CENTRAL VIRGINIA

CITY           SKY/WX    TMP DP  RH WIND       PRES   REMARKS
RICHMOND       MOCLDY    73  66  78 SE9       30.11R
CHESTERFIELD*  NOT AVBL
PETERSBURG*    CLEAR     72  65  80 CALM      30.12R
HANOVER        MOCLDY    73  63  70 E3        30.12R
TAPPAHANNOCK*  PTCLDY    72  62  71 SE5       30.12S
QUINTON*       MOCLDY    71  66  83 E5        30.11S
CHARLOTTSVILLE PTCLDY    73  68  84 CALM      30.10S
GORDONSVILLE*  MOCLDY    69  68  96 CALM      30.10S
ORANGE*        MOCLDY    72  68  88 CALM      30.11R
LOUISA*        CLOUDY    73  64  73 SE3       30.11R
BUMPASS*       MOCLDY    73  66  79 CALM      30.11R
FARMVILLE*     MOCLDY    73  67  81 CALM      30.08F
CREWE*         FAIR      70  66  87 E3        30.10S
FORT PICKETT*  FAIR     N/A N/A N/A SE6       30.11S
CHASE CITY*    FAIR      74  70  85 CALM      30.10S
CLARKSVILLE*   CLOUDY    75  70  83 S3        30.10S
SOUTH HILL*    MOCLDY    74  69  85 SE5       30.16S
LAWRENCEVILLE* FAIR      74  67  80 SE5       30.11R
EMPORIA*       PTCLDY    72  66  83 SE5       30.13R
$$

VAZ088>098-270500-
SOUTHEAST VIRGINIA

CITY           SKY/WX    TMP DP  RH WIND       PRES   REMARKS
NORFOLK        MOCLDY    73  66  78 SE5       30.12S
VIRGINIA BEACH PTCLDY    71  64  78 SE5       30.12R
NORFOLK NAVAL  PTCLDY    74  65  73 SE7       30.13S
WEST POINT*    MOCLDY    72  65  77 E6        30.13S
SALUDA*        CLOUDY    73  68  86 S8        30.12S
NEWPORT NEWS   MOCLDY    73  65  75 S5        30.12S
LANGLEY AFB    PTCLDY    74  66  77 S6        30.11F
FORT EUSTIS    PTCLDY    73  66  77 SE6       30.09S
WILLIAMSBURG*  PTCLDY    75  68  78 SE9       30.13S
HR EXEC AP*    FAIR      66  63  88 CALM      30.10F
FRANKLIN*      CLOUDY    72  66  83 SE3       30.13R
US460-WAKEFLD  PTCLDY    72  66  81 SE3       30.12R
$$

VAZ020-022-025-037-045-270500-
WEST CENTRAL AND SOUTHWEST VIRGINIA

CITY           SKY/WX    TMP DP  RH WIND       PRES   REMARKS
STAUNTON*      PTCLDY    67  64  89 CALM      30.13F
WAYNESBORO*    PTCLDY    67  66  98 CALM      30.14S
HOT SPRINGS VA CLOUDY    64  63  94 S8        30.24F
LYNCHBURG      MOCLDY    70  68  93 CALM      30.12F
DANVILLE       CLEAR     70  70 100 CALM      30.11S
SOUTH BOSTON*  FAIR      73  71  96 CALM      30.10S
MARTINSVILLE   CLEAR     68  67  95 CALM      30.15S
ROANOKE        PTCLDY    75  68  78 CALM      30.14S
BLACKSBURG     CLOUDY    73  66  78 CALM      30.20F
DUBLIN*        CLEAR     70  63  79 CALM      30.18F
MARION*        CLEAR     68  64  88 CALM      30.21F
HILLSVILLE*    MOCLDY    69  64  84 CALM      30.19F
RICHLANDS*     FAIR      71  60  67 SE3       30.17F
WISE*          CLEAR     72  63  73 CALM      30.18S
ABINGDON*      CLEAR     74  68  83 SE3       30.14F
$$

MDZ021>025-VAZ099-100-270500-
SOUTHERN MARYLAND AND THE DELMARVA PENINSULA

CITY           SKY/WX    TMP DP  RH WIND       PRES   REMARKS
PATUXENT RIVER PTCLDY    74  69  85 S9G18     30.11S
BAY BRIDGE APT MOCLDY    72  66  83 SE10G17   30.12S
LEONARDTOWN    MOCLDY    72  66  83 CALM      30.13S
DOVER          PTCLDY    68  68 100 SE6       30.11F
GEORGETOWN     PTCLDY    68  64  87 S5        30.13F
EASTON         CLOUDY    71  65  83 S7        30.16S
CAMBRIDGE      MOCLDY    68  64  88 SE3       30.12F
SALISBURY      NOT AVBL
OCEAN CITY     CLEAR     71  65  81 CALM      30.13F
WALLOPS ISLAND PTCLDY    72  67  84 SE8       30.13F
ACCOMACK*      PTCLDY    71  65  82 SE5       30.13S
$$

NCZ012>017-030>032-270500-
NORTH CENTRAL AND EASTERN NORTH CAROLINA

CITY           SKY/WX    TMP DP  RH WIND       PRES   REMARKS
ROANOKE RAPIDS FAIR      72  68  88 CALM      30.11S
RALEIGH        MOCLDY    80  69  69 S7        30.11R
ELIZABETH CITY CLEAR     74  68  81 SE7       30.12S
AHOSKIE*         N/A     70  68  93 CALM      30.12S
EDENTON*       CLEAR     75  68  78 CALM      30.12S
CURRITUCK*     CLEAR     72  67  85 CALM      30.13S
KILL DEVIL HLS CLEAR     73  65  74 CALM      30.11F
MANTEO         CLEAR     73  66  79 SE8       30.12F
CAPE HATTERAS  CLEAR     74  69  85 NE6       30.11F
TARBORO*       NOT AVBL
GOLDSBORO      CLEAR     74  71  89 CALM      30.10S
WASHINGTON     CLEAR     72  67  84 E5        30.11F
GREENVILLE     CLEAR     75  64  69 S6        30.13S
NEW BERN       CLEAR     71  69  93 CALM      30.12F
WILMINGTON     CLEAR     74  70  87 E3        30.10S
$$

VAZ048-270500-
ELSEWHERE

CITY           SKY/WX    TMP DP  RH WIND       PRES   REMARKS
HARRISBURG PA  CLOUDY    72  67  84 S8        30.10S
BALTIMORE      CLOUDY    73  67  81 SE5       30.12R
ANNAPOLIS      CLOUDY    74  71  91 SE14      30.11S
ANDREWS AFB    MOCLDY    71  67  90 SE6       30.11R
PHILADELPHIA   MOCLDY    67  61  81 S3        30.15S
HENDERSON NC   PTCLDY    74  66  77 S3        30.11S
GREENSBORO     MOCLDY    76  71  85 CALM      30.11F
ROCKY MOUNT    CLEAR     73  69  87 S3        30.11S
$$

VAZ100-270500-
MARINE

STATION/POSITION TIME  TEMP    WIND        PRES    WAVE   SWELL
                       AIR SEA DIR/SP/G            HT/PER HT/PER
                 (UTC) (F)     (DEG/KT/KT) (MB)    (FT/S) (FT/S)
BRANDYWINE LGT   0348          150/ 10/ 11   N/A
CAPE MAY NJ      0348   69 76  130/  2/  2 1019.8F
LEWES DE         0342   71 76  170/  3/  4 1019.9F
15NM E FENWICK I 0350   72 77  130/  6/ 10 1020.7F   2/ 5   2/ 5
OCEAN-CITY-INLET 0342   72 73  140/  4/  6 1020.6F
WACHAPREAGUE VA  0342   74 80  120/  9/ 11 1020.2S
THOMAS POINT MD  0400   73 81  140/ 16/ 18   N/A
GOOSES REEF MD   0400   74 82  130/ 14/ 17 1020.1    2/ 3
COVE POINT MD    0342   75     180/ 16/ 19 1020.2S
SOLOMONS ISLAND  0348          150/ 11/ 14   N/A
BISHOPS HEAD MD  0342   74 82  130/ 11/ 14 1019.9F
PINEY POINT MD   0348          180/ 14/ 16   N/A
CAMBRIDGE MD     0342   70 85              1020.7F
LEWISETTA VA     0342   74 83  180/  7/  9 1019.5F
RAPPAHANNOCK LGT 0342          140/ 11/ 13 1020.7R
STINGRAY PT      0350   76     180/ 14/ 16 1019.9R
YORK RVR RNG VA  0342   75     170/ 15/ 17 1020.1S
YORKTOWN VA      0342   74 82  150/  7/  8 1019.6S
JAMESTOWN VA     0400      85  160/ 14/ 16   N/A     1/ 2
DOMINION TERM VA 0342   74     140/  9/ 11 1020.1R
KIPTOPEKE VA     0342      76  140/  6/  8   N/A
CHES BAY BRIDGE  0342   74 73  140/  5/ 10 1020.0R
CAPE HENRY VA    0342   72     140/  5/  7   N/A
WILLOUBY STN VA  0342   74     130/  7/  8 1020.0R
S CRANEY ISL VA  0342   75     220/  3/  6 1019.8R
CAPE HENRY BUOY  0400      73                N/A     3/ 7
1ST LANDING BUOY 0400   74 76              1020.1    1/ 3
64NM E OF VA BCH 0350   75 78  100/  8/ 10 1020.4R   3/ 8   3/ 8
DUCK PIER NC     0342   75 74  110/ 10/ 11 1019.5F
44100 DUCK FRF   0305      76                N/A     3/ 7
44056 DUCK FRF   0400      74                N/A     3/ 8
OREGON INLET NC  0348           90/  5/  8   N/A
HATTERAS NC      0342   75 79   70/  5/  6 1019.4F
DIAMOND SHLS NC  0350   80 83   80/  6/  8 1019.2S   3/ 7   3/ 7
CAPE LOOKOUT NC  0400   79      90/  9/ 10 1018.9F
$$




USA.gov is the U.S. government's official web portal to all federal, state and local government web resources and services.